Theta_e
314 313 313 314 315 315 316 317 319 320 320 322 321 319 320 323 326 328 328 328 327 327 329 330 330 328 326 324 323 322 321 321 321 323 324 323 324 325 325 324 323 322 322 322 323 324 323 324 325 324 325 327 328 327 322 320 321 321 324 326 325 328 328 329 331 328 323 320 320 322 323 324 324 323 322 322 323 325 325 325 328 328 328 331 330 336 339 336
314 313 312 313 315 315 316 316 318 320 320 321 321 320 320 322 326 328 328 328 327 328 329 329 328 327 325 324 324 322 321 322 324 324 324 323 323 324 324 323 323 323 322 322 323 323 324 323 325 325 325 327 329 328 324 321 320 321 326 327 327 331 328 327 327 324 322 319 318 321 323 325 324 323 322 324 324 325 325 325 327 327 328 330 330 336 337 335
313 313 312 311 314 315 316 316 318 320 320 319 319 319 318 319 323 326 327 328 328 329 329 328 327 326 324 324 324 322 322 324 324 324 323 323 322 322 324 323 321 322 323 323 323 324 324 324 325 325 325 327 329 328 327 324 320 322 325 327 330 330 324 322 322 320 319 318 317 319 321 324 324 323 322 323 324 325 325 325 327 327 329 330 331 337 336 335
312 313 312 311 313 315 315 315 317 319 319 318 317 318 317 317 319 322 324 327 328 328 328 328 325 324 324 324 324 322 322 323 323 323 323 322 322 322 323 323 319 318 322 323 323 324 324 325 326 325 326 329 329 328 329 326 324 325 324 327 330 328 324 321 320 318 317 316 317 317 319 322 323 322 322 323 324 324 325 324 326 326 327 331 332 336 336 335
312 312 312 311 313 315 315 315 316 318 318 317 317 317 317 317 317 318 322 325 328 328 328 327 325 323 322 323 323 321 322 324 324 322 323 321 321 323 323 323 319 316 320 322 323 324 325 326 326 326 327 330 331 330 329 326 325 326 325 327 326 323 325 321 317 316 315 315 316 316 317 320 321 322 322 323 323 324 324 323 324 323 325 332 333 335 336 335
312 312 313 312 313 315 315 315 315 317 318 318 318 317 316 316 316 317 320 322 326 328 327 326 324 322 322 322 321 321 323 326 325 322 322 320 322 323 322 323 319 317 319 321 323 325 325 326 326 328 329 331 332 331 330 328 325 326 326 326 324 322 322 319 315 314 314 315 316 317 317 318 319 320 321 322 324 323 322 321 323 322 326 333 334 335 335 334
311 311 312 313 314 315 316 316 315 316 318 317 316 315 315 315 315 316 318 320 324 326 327 325 323 322 322 321 321 322 322 323 323 322 321 320 322 322 322 323 321 319 318 320 323 324 324 325 327 329 330 332 333 331 332 329 324 326 329 325 323 322 319 317 315 313 313 315 316 316 316 316 317 318 320 321 322 322 321 321 321 323 329 334 334 334 335 335
310 310 312 313 314 315 316 316 316 316 317 316 315 314 314 314 315 315 316 318 321 324 326 324 322 321 322 320 320 322 322 322 323 321 321 320 321 322 322 323 322 321 319 319 323 324 324 326 327 329 331 333 333 332 332 329 324 326 330 326 320 318 316 315 313 313 313 314 314 315 315 317 317 317 318 318 319 320 321 321 320 323 330 332 332 333 334 335
310 311 312 313 314 315 316 317 317 317 318 317 317 317 315 314 314 315 316 318 320 323 325 324 321 321 320 319 320 323 322 322 322 320 321 321 321 322 322 322 321 322 319 318 322 324 324 326 327 329 331 332 331 332 329 329 327 327 330 327 320 317 316 314 313 313 313 313 313 314 316 316 316 315 316 317 317 319 321 321 320 323 329 330 331 333 333 334
311 312 313 313 314 314 315 315 316 317 318 318 318 319 317 315 314 314 315 317 319 322 324 323 321 320 320 319 321 322 321 320 321 320 321 321 321 321 321 321 321 321 320 318 320 324 324 325 328 327 327 329 330 330 328 329 327 325 329 327 321 319 316 315 315 314 313 313 313 314 317 317 315 315 317 319 317 318 320 321 321 322 326 328 329 332 334 334
312 312 313 314 314 314 315 314 315 317 318 318 318 319 319 316 314 314 315 316 318 322 324 322 320 320 320 320 322 322 319 319 321 321 321 320 321 320 320 321 322 321 320 320 321 323 324 324 324 325 326 327 328 328 327 326 323 323 327 324 321 319 317 315 315 314 313 314 313 314 317 316 315 315 317 319 317 319 320 321 323 322 322 325 327 331 333 334
312 311 312 313 314 314 314 313 314 316 318 318 319 320 319 316 314 314 315 315 316 322 324 322 320 320 320 321 322 322 319 319 321 322 322 321 320 320 320 322 323 321 319 321 321 320 322 320 320 326 327 325 327 326 325 323 321 322 323 324 324 321 320 318 316 316 315 315 314 314 317 317 315 315 317 318 317 319 320 321 324 322 321 324 327 330 332 334
312 311 312 313 313 313 313 312 312 315 317 317 318 319 319 316 314 314 315 314 315 321 324 322 320 320 321 322 322 320 321 321 320 322 324 322 322 321 321 321 322 321 319 319 320 319 321 319 319 324 322 322 325 322 322 321 320 321 322 325 327 324 324 323 320 318 316 316 314 316 320 322 320 317 316 317 318 319 319 322 324 322 322 323 326 330 332 333
312 311 312 312 312 312 312 311 311 315 316 315 317 318 317 315 314 314 314 314 315 321 325 323 321 321 322 323 322 321 320 321 322 322 324 324 323 322 322 321 321 321 320 320 321 321 321 318 317 320 318 319 321 318 319 319 319 322 323 324 326 325 326 327 324 319 318 317 313 318 323 327 328 323 317 317 318 319 319 321 323 323 323 324 328 330 330 332
312 312 312 312 312 312 312 312 312 315 316 314 315 317 316 314 313 313 313 313 314 318 322 323 322 322 323 324 322 321 320 321 323 323 324 324 322 322 322 321 321 321 321 321 322 323 322 319 320 322 318 317 318 318 320 319 320 323 323 324 326 324 326 329 324 319 320 317 312 319 324 327 332 327 318 317 318 319 319 319 321 322 323 325 328 330 330 331
312 312 312 313 312 312 312 313 313 314 315 315 316 317 316 314 313 312 313 313 313 314 317 322 323 322 325 325 322 320 321 323 323 324 325 324 322 321 321 320 320 320 320 321 321 323 321 320 322 323 318 317 319 321 322 321 322 322 321 323 325 323 323 323 321 319 321 317 312 318 324 326 329 323 317 316 317 317 318 318 319 321 323 325 327 328 328 329
312 312 312 312 311 311 312 313 314 314 315 316 316 316 315 314 313 313 313 314 314 313 314 317 320 323 324 323 322 321 321 323 323 323 325 325 322 320 319 319 319 319 319 318 318 320 320 320 323 323 320 319 321 322 323 323 322 322 321 322 323 323 322 320 318 318 318 316 314 316 319 323 324 319 315 314 316 317 317 318 318 320 323 325 327 327 328 328
312 312 312 312 311 311 312 313 314 314 314 315 316 316 315 314 312 313 314 314 314 313 314 314 317 325 326 321 322 323 321 323 323 323 324 324 322 319 319 319 318 319 319 319 318 320 322 322 322 323 323 321 323 323 324 324 323 322 322 321 322 322 322 322 319 317 316 316 317 316 316 318 320 319 317 314 314 316 317 317 317 318 321 323 326 326 327 328
312 312 312 312 311 311 312 313 313 314 314 314 316 316 314 313 311 312 313 313 315 316 316 316 318 325 326 322 322 322 321 322 323 323 323 323 322 320 319 319 319 319 322 324 322 321 324 323 323 326 326 324 325 324 323 325 324 323 323 322 322 321 321 323 320 316 316 317 317 318 317 318 319 320 322 318 314 315 317 316 317 318 318 319 321 323 325 327
312 312 312 311 311 312 312 313 313 314 314 314 314 314 313 312 311 312 312 313 315 316 315 315 317 319 321 322 322 322 321 322 323 322 321 321 321 320 319 319 320 322 325 327 325 323 324 325 325 327 327 325 326 325 324 325 324 324 323 322 322 322 322 324 320 315 315 316 317 319 319 319 320 320 322 321 317 316 316 316 316 317 317 316 318 320 322 323
312 311 312 311 311 312 312 313 313 313 313 314 313 313 313 311 310 311 312 311 311 313 314 314 314 315 317 319 321 321 321 322 322 321 320 320 320 320 320 321 323 325 326 326 326 324 325 327 327 326 326 326 325 325 324 325 326 325 323 322 322 323 323 324 321 316 315 317 319 320 320 320 320 319 319 320 319 317 317 317 317 317 317 317 317 318 319 321
311 311 311 311 311 311 311 312 313 312 313 314 313 313 312 311 311 311 311 310 309 311 313 313 313 313 314 315 317 320 322 323 323 322 319 318 320 321 321 322 324 326 325 325 326 325 326 328 327 325 325 326 325 325 325 326 325 326 325 324 323 324 324 323 320 318 316 319 323 324 323 322 322 321 321 320 319 319 318 317 317 317 317 317 318 318 319 320
311 311 310 310 311 310 311 312 312 312 313 313 313 313 312 312 311 309 311 313 311 310 312 312 312 312 313 314 314 317 323 324 323 322 317 317 321 320 321 323 324 325 326 325 326 327 328 328 326 325 325 326 326 325 325 326 326 326 326 325 324 325 326 324 320 318 317 319 321 321 321 322 322 322 322 323 322 320 319 318 317 317 317 317 318 318 318 319
311 311 311 310 310 310 311 311 311 312 312 312 312 312 312 312 310 309 313 315 312 312 313 312 312 312 313 314 313 316 322 323 323 322 316 316 321 320 320 323 324 326 326 324 325 328 330 327 325 325 326 326 327 327 326 326 326 328 327 326 325 326 327 324 320 317 316 317 317 319 322 323 324 324 324 324 323 322 320 318 317 316 316 317 318 318 319 318
311 311 311 310 310 310 310 311 311 312 312 312 313 312 311 311 310 310 313 313 312 313 314 313 312 312 313 314 314 316 318 321 323 321 315 316 321 321 321 323 324 328 325 322 325 327 327 325 325 325 325 326 326 327 327 326 326 328 328 327 326 326 328 324 320 319 321 322 318 319 325 325 324 326 326 325 325 324 321 318 317 317 316 317 317 317 318 319
310 310 310 310 310 310 310 310 310 310 310 311 312 312 311 311 311 311 312 311 311 313 314 313 313 313 312 313 315 315 317 319 320 319 315 316 320 320 322 325 325 327 324 321 326 327 325 324 325 325 325 326 327 326 326 326 326 327 327 327 327 327 328 325 323 324 327 327 318 316 323 325 322 323 325 325 325 324 323 320 319 318 318 316 316 316 317 318
309 310 310 309 310 310 309 309 309 309 309 309 312 312 310 311 310 311 311 308 308 312 313 312 313 313 312 314 315 315 318 319 318 318 315 317 320 319 323 327 326 326 323 323 331 328 322 324 325 324 326 327 328 327 326 326 328 328 326 326 327 326 327 327 326 326 327 325 319 315 319 323 322 322 323 323 323 324 322 322 320 320 320 318 317 316 317 317
309 309 309 309 310 309 308 309 309 309 308 309 312 311 310 310 309 310 310 308 310 312 313 313 313 312 313 315 316 315 317 320 322 319 314 315 318 319 324 326 325 326 323 326 332 325 320 325 326 324 327 328 327 327 325 326 328 325 324 326 326 326 327 327 326 327 324 322 324 321 318 323 324 321 322 322 321 322 322 321 321 320 320 320 318 317 317 317
308 308 309 309 309 308 308 309 309 309 308 310 311 309 309 308 308 311 309 310 313 312 312 314 313 313 315 316 316 315 316 319 321 317 314 315 316 318 323 323 323 326 324 324 326 321 319 322 323 324 326 326 326 325 325 328 327 321 321 323 323 323 323 323 325 325 321 321 325 325 320 323 325 321 321 321 319 320 322 321 322 321 320 320 319 317 317 317
307 308 309 309 308 308 309 309 309 309 310 311 310 309 308 306 308 311 310 310 314 313 313 315 314 315 317 317 317 316 316 317 316 314 315 316 315 318 321 321 324 327 322 319 318 316 314 314 319 322 323 323 323 321 323 326 323 319 319 320 320 320 319 320 320 319 323 326 326 324 321 322 324 322 320 322 320 319 321 321 322 322 321 320 319 319 318 316
307 307 308 308 307 307 308 309 309 310 311 312 310 308 308 308 308 311 310 312 315 316 316 316 315 318 318 317 317 317 317 317 316 315 316 317 317 320 322 322 323 324 322 320 316 314 314 315 318 317 316 320 321 316 317 319 318 319 321 321 322 321 319 321 319 318 327 331 323 319 321 321 322 322 320 323 322 319 319 321 322 322 322 321 320 319 319 318
307 307 307 306 306 306 307 308 309 309 311 312 310 307 308 309 309 310 310 311 313 316 317 317 317 319 317 316 317 316 317 317 316 317 318 318 320 321 323 323 323 322 324 324 319 316 317 318 317 314 313 317 322 319 316 315 317 321 322 323 327 326 325 328 324 321 328 328 316 313 318 319 320 320 320 321 321 318 318 319 320 320 320 321 321 319 320 320
306 307 306 306 306 306 306 308 308 308 309 311 311 309 306 308 309 309 309 309 311 315 317 317 317 318 317 317 317 316 316 317 317 318 318 319 321 321 322 321 321 324 325 324 321 319 319 318 315 314 314 315 321 323 319 317 319 323 324 326 329 328 329 333 329 325 329 324 313 311 316 319 319 318 319 320 320 320 318 318 318 318 318 318 319 319 319 320
306 305 305 305 306 306 306 307 307 307 307 307 310 309 305 306 308 308 309 310 312 315 316 317 317 318 318 317 318 317 317 317 317 318 319 319 320 321 322 321 321 324 325 323 321 321 323 321 316 316 316 316 320 323 321 319 319 323 324 325 328 327 329 333 330 329 329 321 313 314 318 321 320 317 316 316 317 317 316 315 315 315 315 316 316 314 314 314
305 304 304 305 306 306 306 307 307 307 306 306 308 307 304 305 306 307 309 309 312 314 314 317 318 318 318 317 318 318 317 318 318 318 318 318 319 320 321 321 321 323 325 324 322 321 324 322 316 315 314 314 319 321 318 318 319 320 321 325 327 325 326 327 324 322 323 319 316 315 318 320 319 318 317 315 315 314 314 314 313 314 314 315 315 313 313 312
304 304 304 304 306 306 306 306 307 307 306 306 307 306 303 304 304 306 307 307 311 314 314 317 318 319 319 318 319 318 317 318 318 318 317 316 317 318 319 320 320 322 325 325 322 322 325 319 312 312 312 311 317 318 315 320 321 318 321 325 324 321 322 324 320 315 317 323 323 317 316 317 316 318 318 318 317 315 314 314 313 313 314 315 316 315 314 314
304 304 304 303 304 305 305 306 307 308 306 306 307 306 304 304 305 307 307 306 310 313 313 317 319 319 319 318 319 319 317 318 318 318 316 315 317 317 317 319 320 320 323 323 321 322 323 317 310 312 314 312 314 316 316 320 320 318 321 323 320 319 321 321 322 320 319 325 325 319 319 318 317 319 319 318 319 317 315 314 313 313 313 315 316 316 316 316
303 303 303 303 304 304 304 304 306 306 305 305 306 306 306 306 307 308 308 307 309 311 312 314 317 319 319 319 319 318 317 318 318 318 316 316 317 318 317 319 320 319 320 321 321 321 319 316 311 311 314 312 313 317 318 316 315 317 320 320 319 324 323 320 323 325 323 325 325 320 318 317 316 317 317 317 319 317 317 316 315 313 313 314 316 316 316 317
302 302 302 303 303 304 304 304 304 304 305 304 304 305 305 306 306 307 308 308 309 311 310 312 315 316 317 319 319 318 318 318 318 318 317 316 317 318 317 319 320 320 319 318 319 320 319 319 314 310 311 312 313 317 319 316 313 313 317 319 320 324 324 323 323 324 324 324 324 322 318 316 317 317 317 318 317 317 317 317 316 314 313 314 314 315 318 320
302 301 302 302 302 303 303 303 304 304 304 303 303 304 305 305 306 306 307 308 309 310 310 312 313 312 314 317 319 318 318 318 317 318 318 317 318 318 317 319 320 320 320 318 317 319 319 320 316 310 310 312 314 317 319 318 315 313 317 320 321 320 319 321 323 323 322 322 322 323 321 317 315 315 317 318 317 317 317 317 318 316 314 315 314 317 321 320
301 300 301 302 302 303 303 303 303 303 303 303 303 303 304 304 306 306 306 306 308 309 310 311 311 310 312 316 318 318 318 319 318 318 319 317 318 319 317 318 320 320 321 319 317 319 319 318 316 311 311 314 315 315 315 315 316 316 317 320 321 320 319 321 325 323 320 320 319 319 321 318 313 313 314 315 315 315 315 316 317 316 314 315 316 318 318 317
300 300 301 302 302 302 302 302 302 302 302 303 303 303 303 304 305 305 306 306 306 307 308 310 310 311 312 313 314 316 317 319 318 318 320 318 317 319 318 317 318 320 322 321 319 320 318 315 315 312 312 313 312 310 310 312 316 317 317 319 320 320 320 323 326 322 318 317 315 314 317 317 313 313 313 313 313 311 311 313 314 313 313 314 316 316 315 314
299 300 301 302 302 302 301 300 301 301 301 302 302 303 303 303 304 304 305 305 306 307 307 308 310 312 312 311 310 312 316 319 319 318 320 319 317 318 317 317 318 319 322 321 320 320 318 315 314 313 312 311 309 310 310 312 316 316 316 318 319 320 321 321 320 318 317 317 316 317 319 318 314 313 311 311 311 310 309 310 311 312 312 314 315 314 314 315
299 300 300 301 302 301 300 299 300 300 301 301 302 303 303 303 304 303 304 304 306 307 307 307 308 310 312 312 311 311 314 318 319 318 319 320 319 318 318 317 318 319 321 321 320 320 319 317 315 314 314 314 313 312 312 313 314 315 316 317 318 320 320 317 315 314 316 319 319 321 322 320 316 314 312 310 310 310 309 309 309 311 313 314 315 315 315 316
300 299 300 301 302 301 300 299 299 300 301 301 301 302 303 303 303 303 303 304 304 307 308 308 308 308 311 313 312 311 312 314 317 318 319 319 318 318 318 318 318 319 320 320 320 319 318 317 317 316 316 318 317 316 315 314 312 313 316 317 318 319 318 316 315 316 317 319 319 320 321 319 315 314 313 311 310 311 310 309 309 310 312 314 315 316 316 317
299 299 300 300 300 301 301 300 300 300 300 301 301 301 302 302 303 302 302 303 303 305 306 307 308 308 310 313 313 313 312 310 313 315 318 320 317 315 317 318 318 318 319 319 320 319 317 317 317 317 318 318 319 319 317 315 314 314 316 317 317 318 318 316 317 318 318 319 319 319 319 320 316 314 314 313 312 312 311 310 310 310 312 314 315 315 315 315
298 298 300 300 300 301 301 300 301 300 299 300 300 300 301 301 301 302 302 301 302 303 305 306 307 308 309 312 313 314 313 312 311 312 314 317 314 313 316 318 318 319 318 318 318 317 317 317 317 317 318 318 319 319 316 314 315 314 315 316 316 317 318 318 319 319 319 320 320 319 319 320 318 315 315 314 312 312 312 311 311 312 313 313 313 313 313 312
298 297 299 300 300 301 301 300 300 300 300 300 300 300 300 299 300 301 302 301 301 301 303 305 307 308 309 310 312 313 314 314 313 312 312 314 313 314 317 318 318 318 317 316 317 317 317 319 318 316 318 318 317 317 315 315 315 314 314 315 315 316 317 318 318 319 319 320 320 320 320 319 318 316 315 315 314 313 312 310 311 311 311 311 311 312 313 312
298 298 298 300 300 300 301 300 300 300 300 300 300 300 300 299 299 300 302 303 302 301 301 303 305 307 308 308 310 312 314 315 315 313 313 313 314 315 318 318 316 316 317 317 316 318 318 318 317 316 317 317 315 316 316 315 316 315 314 314 314 315 316 316 316 317 318 319 318 319 320 319 318 317 316 316 316 313 311 310 311 311 311 311 311 312 313 313
298 298 298 299 299 299 299 300 300 300 301 300 300 300 300 300 300 300 301 303 303 302 302 301 303 305 307 308 309 311 313 314 315 315 314 313 314 315 317 319 316 315 317 316 315 317 319 319 317 316 317 317 314 315 317 316 316 316 315 314 313 314 314 315 316 316 317 317 317 318 319 318 317 316 316 317 316 314 312 312 312 312 312 313 314 314 314 314
299 299 299 299 299 299 299 300 300 300 301 300 300 301 300 300 300 300 301 302 303 303 303 302 302 303 305 308 309 309 311 312 314 316 315 313 314 315 316 317 316 315 316 316 315 316 317 318 317 316 318 318 313 313 317 317 316 316 316 314 313 313 314 314 315 315 316 317 317 318 317 317 316 315 316 316 315 314 314 314 314 314 314 314 315 316 317 316
299 299 299 299 299 298 299 299 300 300 300 300 300 301 301 300 301 301 301 302 302 303 303 303 303 303 303 306 309 309 310 311 312 314 315 314 313 315 316 316 315 315 315 316 316 316 316 317 317 316 320 320 315 313 316 317 317 316 316 314 313 313 313 314 314 314 315 315 316 317 316 316 315 315 315 315 314 314 314 314 315 316 315 315 314 315 316 317
Wind_Speed
30 33 35 34 33 31 29 27 27 27 25 25 25 27 26 25 27 28 27 28 31 31 31 32 33 35 34 32 36 36 35 28 19 19 15 19 24 14 14 16 13 18 18 14 12 11 11 11 11 10 8 6 3 3 2 1 2 3 6 7 7 8 7 6 8 5 2 5 6 6 7 6 7 8 4 3 6 5 5 7 5 3 3 6 6 10 17 19
30 32 34 33 33 31 29 27 27 27 25 25 26 26 25 24 24 27 27 27 30 32 31 30 31 33 33 32 34 37 32 22 16 19 21 25 27 18 15 15 13 17 18 15 15 15 13 12 12 11 8 6 4 3 4 3 2 5 6 7 8 7 3 3 4 3 2 4 6 6 7 5 5 9 7 6 9 9 7 8 8 7 7 7 8 13 17 18
30 31 33 33 33 31 30 27 26 26 25 26 26 26 27 26 23 23 24 26 30 32 32 30 30 31 34 32 31 35 26 13 14 20 26 29 26 21 17 14 13 17 17 14 16 18 15 13 13 11 8 7 5 5 6 5 4 6 6 6 9 6 3 4 2 3 3 4 6 6 6 5 4 7 7 7 9 11 10 8 9 10 11 10 11 16 17 17
31 31 31 33 33 32 31 28 26 25 25 25 24 24 26 27 28 24 20 24 30 33 33 31 31 31 34 33 30 31 20 10 15 20 29 33 26 23 20 15 12 16 15 9 13 16 15 14 12 11 9 8 7 7 7 7 6 6 6 8 6 4 4 4 4 5 4 2 4 6 6 6 6 6 7 8 8 9 10 10 10 11 12 13 13 16 17 17
31 30 30 32 33 32 31 28 26 25 25 24 23 23 22 24 29 27 19 18 30 36 33 33 33 31 33 32 29 27 17 9 11 21 35 35 29 24 22 18 13 13 11 7 10 12 13 14 12 11 9 9 9 8 9 10 8 6 9 11 6 3 5 5 6 5 5 1 3 6 5 5 6 6 8 10 9 4 2 6 9 9 10 15 16 17 17 17
32 30 29 30 32 31 29 27 26 25 24 23 22 21 20 22 25 27 22 15 27 40 36 36 36 32 33 30 28 26 18 7 5 21 41 36 30 26 23 20 14 10 10 9 12 12 12 13 11 10 8 10 12 10 11 12 9 7 8 11 8 5 4 5 6 4 4 3 4 5 3 4 6 7 8 11 11 1 7 5 1 4 8 17 18 17 16 17
32 31 29 29 30 30 28 27 26 25 24 23 23 22 21 22 21 25 26 14 20 38 38 38 39 34 31 28 24 20 17 10 5 13 38 39 33 28 25 21 16 10 12 13 15 13 12 13 13 11 9 11 13 13 13 11 10 10 7 7 8 5 2 4 4 3 3 4 2 2 2 5 8 5 5 10 13 5 5 6 4 0 8 16 17 16 17 18
31 31 30 29 29 28 26 25 24 24 23 23 24 23 24 24 22 24 27 16 14 33 38 37 40 36 33 29 18 11 15 15 3 4 30 43 36 29 26 21 17 13 14 16 16 15 14 15 15 11 12 12 11 13 12 10 10 12 9 4 5 4 3 3 3 3 4 3 1 1 4 6 5 1 2 8 11 9 5 6 3 2 8 13 14 16 16 17
30 31 30 30 29 27 25 24 23 23 23 24 22 22 24 25 25 23 25 18 12 28 38 37 39 38 36 28 13 10 18 19 4 4 22 44 40 30 26 22 20 17 14 16 15 17 14 13 17 12 12 13 10 10 10 9 7 10 12 7 6 7 5 4 3 5 4 3 3 5 7 6 3 1 5 11 10 8 7 7 6 6 8 11 12 14 15 15
30 30 31 30 29 28 26 24 22 22 22 24 23 23 23 23 25 23 22 19 14 24 39 41 41 39 33 22 11 10 15 21 13 3 16 38 42 34 29 26 23 20 16 16 15 17 11 8 14 9 6 9 9 7 9 9 2 3 11 8 7 8 6 5 5 6 4 4 5 7 8 5 5 2 7 8 6 7 9 8 9 8 9 10 10 12 14 15
31 31 31 30 28 26 25 23 21 22 22 22 23 24 23 21 23 23 21 20 16 23 40 42 42 42 31 19 13 9 11 22 19 6 12 28 39 40 37 30 25 23 17 11 10 9 3 2 3 4 1 5 8 7 7 5 2 2 8 7 8 8 6 7 7 7 5 5 7 8 7 4 5 6 9 4 5 7 9 10 11 10 10 10 10 10 11 13
31 32 31 29 27 25 24 23 22 22 21 20 22 23 23 21 23 22 20 19 15 22 40 43 44 43 28 14 12 11 12 23 23 13 13 19 29 36 38 32 24 24 18 7 3 2 2 4 3 5 3 4 8 6 5 5 1 3 6 6 10 9 9 12 11 9 8 6 8 5 6 8 9 10 11 6 6 7 9 10 11 11 10 10 10 9 9 11
31 33 32 29 27 25 24 23 22 21 19 18 19 21 22 22 24 23 21 18 13 21 39 42 44 42 23 8 13 17 13 17 24 22 19 17 18 26 35 35 24 20 17 10 7 4 1 3 4 3 4 6 6 4 3 8 6 6 7 8 8 8 10 14 13 10 9 6 9 6 7 10 12 15 14 9 9 9 8 10 10 10 10 10 10 9 9 11
30 33 34 30 28 27 24 24 22 20 20 19 19 20 22 22 23 21 19 17 12 20 37 43 45 35 18 5 10 23 16 11 20 23 21 18 16 20 28 33 26 19 16 13 12 10 5 2 4 5 5 5 3 5 5 7 7 7 8 7 6 7 8 13 14 12 10 6 9 8 8 9 10 14 15 10 10 11 10 10 10 10 10 10 9 10 9 10
30 32 33 31 30 28 25 24 22 20 21 21 20 20 21 21 21 19 16 13 11 16 28 42 46 25 9 5 8 23 20 12 18 19 20 22 21 21 24 28 24 19 17 12 11 12 8 2 4 4 3 2 4 8 7 6 7 8 7 7 8 7 5 10 14 14 12 6 10 10 7 9 12 9 12 9 9 11 10 10 10 10 11 11 10 10 10 10
30 31 33 32 30 28 25 24 23 21 20 21 22 21 21 19 20 21 17 10 7 12 15 25 39 22 3 4 10 21 17 10 17 19 20 25 24 23 25 26 21 16 16 11 9 10 8 2 3 3 3 5 7 9 7 6 7 8 8 7 8 9 5 7 10 14 13 7 12 14 8 7 8 6 10 8 9 10 10 10 11 11 11 11 10 9 9 10
31 31 32 32 30 28 25 24 23 21 18 19 23 25 23 20 20 20 19 12 3 8 10 8 20 20 3 4 11 15 15 12 19 21 22 25 24 27 27 20 15 15 12 7 6 7 6 4 2 2 5 7 8 8 9 9 8 8 8 7 8 11 9 6 7 10 12 8 11 14 11 10 6 5 8 7 9 10 10 11 11 10 9 9 8 8 9 10
30 30 30 30 30 28 25 25 24 22 19 18 22 25 24 23 24 17 13 11 1 1 6 11 8 12 4 7 9 12 20 19 21 23 24 25 26 30 24 14 14 17 12 6 4 5 5 4 3 4 6 8 10 11 10 10 10 10 9 7 7 11 13 9 5 8 13 11 11 12 12 15 14 9 7 8 9 9 10 10 10 9 8 8 8 8 9 10
29 28 30 30 29 27 24 25 24 23 22 18 20 22 20 21 21 14 7 8 3 1 3 5 5 3 1 10 11 13 23 23 21 22 22 24 28 27 20 15 15 14 12 7 5 7 5 4 5 7 9 11 14 14 12 9 10 12 11 10 9 8 11 9 4 7 12 10 11 13 12 15 16 16 13 10 11 10 10 9 8 8 8 8 8 9 9 10
28 28 31 30 29 27 24 25 24 26 25 21 22 19 13 13 10 6 3 4 6 3 2 1 3 6 3 8 14 18 23 22 16 16 20 24 27 24 15 12 10 7 10 11 8 7 6 5 8 10 13 16 17 17 15 11 8 11 12 12 11 7 8 9 6 7 7 7 10 13 15 16 15 15 15 12 11 11 12 12 10 9 8 8 8 9 10 11
29 29 31 30 30 29 25 26 26 28 26 24 25 13 7 11 6 5 7 5 12 10 4 2 4 6 6 2 11 19 17 13 9 11 20 25 25 20 11 11 10 6 9 10 8 6 5 8 12 14 15 17 18 16 15 13 9 9 11 10 10 9 6 5 6 7 5 5 8 11 14 16 15 14 14 13 13 13 14 14 13 12 11 9 10 11 10 9
29 30 31 30 30 29 27 27 26 27 26 24 23 11 7 11 5 9 12 4 11 14 7 2 5 9 7 5 2 10 12 10 10 13 16 18 19 16 12 14 12 11 13 10 7 7 7 10 14 16 15 15 16 15 14 13 10 9 9 8 8 8 4 4 7 8 5 4 7 10 12 13 14 14 14 14 15 14 14 14 14 13 13 11 11 11 10 10
29 30 30 30 29 28 28 27 26 26 24 22 21 12 8 9 7 14 12 2 5 11 9 7 8 11 7 3 5 2 11 13 12 14 15 13 12 13 17 19 16 15 15 13 10 10 8 9 15 18 16 16 17 16 15 11 8 8 8 7 7 7 7 5 6 8 6 5 5 7 9 11 12 13 13 15 16 15 14 15 14 12 12 13 12 11 11 12
28 28 28 29 29 28 28 27 25 23 21 19 17 10 9 12 15 16 8 2 2 5 8 12 10 10 7 1 2 0 6 9 9 12 16 13 10 12 17 19 20 16 13 15 17 13 8 7 15 21 18 19 18 17 17 11 7 10 10 9 7 7 8 3 4 5 4 5 5 5 8 9 12 14 14 13 14 16 15 15 15 13 12 12 12 12 12 12
26 27 27 29 28 28 29 26 21 19 19 17 14 12 14 17 21 17 5 2 2 2 6 10 7 10 10 1 2 1 2 2 6 10 15 15 11 11 14 14 13 14 16 19 19 13 8 9 16 21 19 21 20 17 19 14 9 10 12 12 9 8 8 3 4 3 3 5 5 5 8 7 9 14 14 12 13 16 15 17 17 15 14 13 12 13 12 11
25 26 29 30 29 31 28 17 16 19 17 13 12 16 17 18 20 16 4 2 3 3 6 8 5 9 13 5 4 3 2 2 2 11 18 19 11 4 10 11 5 11 19 17 12 7 8 13 19 21 20 22 19 15 18 16 9 8 10 13 11 8 8 6 4 3 5 5 3 4 8 6 5 9 10 8 11 14 14 16 18 17 16 14 12 12 12 12
24 25 30 30 30 32 20 9 17 19 12 11 15 17 18 18 15 9 2 0 4 3 7 6 4 7 10 8 9 6 4 2 5 10 16 16 9 3 5 10 5 10 15 10 8 5 9 19 21 21 21 18 16 14 17 18 11 4 8 12 12 8 7 6 4 4 6 4 0 6 7 8 8 8 9 9 10 12 12 14 17 17 17 16 15 14 14 13
24 26 29 28 32 30 14 11 20 17 11 14 17 17 17 15 9 3 2 3 3 4 7 5 4 6 6 8 12 6 4 5 6 8 9 8 7 2 3 9 8 15 18 14 11 5 12 23 23 23 20 15 16 15 16 18 10 1 6 10 11 9 7 4 3 5 4 4 5 7 5 6 9 6 9 13 14 14 15 16 17 16 17 18 17 16 15 13
24 25 26 27 32 25 12 16 19 13 12 16 18 18 17 13 6 0 4 5 2 3 5 6 6 7 6 7 10 7 4 2 2 3 7 5 5 1 2 5 7 16 17 12 9 5 8 15 19 22 17 14 17 14 15 17 8 2 5 6 6 4 3 2 3 4 2 4 9 7 6 6 8 5 7 10 12 14 15 15 16 16 17 18 18 17 15 13
22 23 23 26 26 18 14 16 15 12 15 17 21 22 18 11 4 2 6 4 2 3 4 7 8 9 10 9 8 8 7 1 3 4 5 4 2 1 0 1 1 8 7 3 4 5 4 2 7 12 11 13 13 5 5 10 8 7 7 7 7 4 4 3 1 0 2 8 8 8 11 8 7 5 6 8 10 10 11 12 12 15 16 16 16 16 16 14
20 21 23 22 19 15 13 11 11 14 15 18 25 23 14 6 2 5 6 1 2 5 6 8 12 13 14 12 7 8 8 3 5 7 5 4 4 2 3 1 1 2 4 5 5 3 6 4 3 2 3 8 13 7 4 5 9 10 7 6 5 3 3 2 2 3 5 8 2 3 10 11 8 4 3 7 8 7 8 11 11 13 14 14 14 15 15 14
20 21 21 17 15 13 11 11 13 15 17 23 24 16 8 4 4 5 3 2 1 5 8 10 14 15 16 13 9 10 10 5 6 9 8 7 8 8 9 8 5 4 5 8 5 4 7 5 2 3 3 6 15 9 3 5 8 9 7 8 7 4 4 4 4 4 7 6 2 2 3 8 12 9 7 11 11 7 8 10 10 10 11 11 11 11 11 9
21 21 19 16 13 10 12 16 16 15 22 24 15 7 6 5 5 5 3 1 1 1 7 13 15 16 18 14 9 10 10 6 7 9 9 10 10 12 13 10 8 3 3 9 9 7 6 0 1 5 3 7 13 12 7 6 10 12 10 10 9 6 5 6 6 4 7 5 3 4 2 6 10 9 11 16 17 14 11 9 9 8 9 7 3 2 1 0
20 19 17 15 11 11 15 17 16 17 21 16 7 7 10 6 5 7 5 2 2 2 4 13 18 18 18 14 11 11 8 5 8 9 7 9 8 10 12 11 10 3 2 8 6 7 9 3 6 10 5 7 14 13 9 8 9 11 9 8 8 5 5 7 7 7 7 2 3 5 4 6 6 1 3 8 10 10 7 6 7 6 6 4 0 1 1 1
19 17 16 14 11 12 16 15 14 17 18 11 4 8 11 7 5 7 6 2 1 1 2 9 16 17 15 12 12 14 6 3 10 9 6 9 7 8 10 10 13 6 4 9 4 5 10 3 3 5 1 7 12 9 10 12 6 5 4 6 7 4 5 4 2 4 3 0 3 6 4 6 5 6 8 7 7 7 8 7 8 9 8 4 3 3 3 2
21 17 15 14 12 11 15 16 15 13 12 9 6 8 9 7 6 6 6 5 4 4 2 6 12 13 11 9 10 14 6 2 11 9 4 7 6 8 10 8 13 11 7 8 3 5 9 2 2 3 1 5 7 5 12 13 7 4 4 7 4 1 3 5 2 2 1 5 5 6 6 7 6 11 13 13 13 10 9 9 10 11 10 7 5 4 4 3
20 14 11 12 12 12 13 15 14 11 8 7 7 8 8 6 4 3 6 8 7 6 3 4 8 9 9 7 8 14 9 3 9 8 3 6 5 8 10 6 9 11 8 5 1 3 7 4 2 4 3 2 1 1 7 5 3 6 7 7 4 4 2 3 4 4 4 7 6 7 9 7 5 6 4 9 15 13 10 10 9 9 9 9 6 4 5 5
18 11 7 10 12 12 10 10 11 9 6 6 8 9 7 6 4 1 3 6 7 6 4 3 5 6 8 9 8 14 14 7 8 6 5 6 3 8 14 7 8 11 10 7 3 2 7 6 2 2 4 2 2 3 6 1 2 2 5 8 6 2 3 4 5 6 7 8 6 7 10 7 7 7 2 5 11 12 11 10 8 7 8 8 6 5 6 6
15 8 4 9 13 12 11 9 8 6 5 7 8 8 7 7 7 4 1 1 2 5 6 3 2 2 4 8 10 13 15 12 9 6 5 5 3 9 16 10 8 14 13 6 2 3 6 5 3 1 1 2 1 4 7 4 1 2 3 9 7 4 4 6 6 4 5 6 5 5 6 5 7 9 9 10 10 10 11 11 9 7 6 6 5 5 5 5
10 5 4 11 15 13 11 8 6 6 6 8 7 6 7 7 8 7 3 0 2 1 4 2 3 1 3 5 10 12 12 12 12 8 5 6 5 7 13 11 9 15 15 5 2 3 3 2 5 4 2 4 5 5 9 11 7 5 7 11 9 4 1 4 7 6 5 5 5 5 5 5 2 2 7 12 11 8 8 8 8 5 4 3 2 1 4 5
6 4 4 12 17 16 12 6 5 6 6 8 7 7 7 5 6 7 5 4 1 2 2 2 2 5 0 2 6 9 10 10 10 9 6 8 8 4 10 13 11 13 12 5 2 3 2 3 7 7 5 6 4 1 4 6 7 9 9 9 10 8 4 4 8 8 5 4 4 4 6 4 2 1 3 4 4 2 2 2 1 3 2 1 1 3 4 4
6 4 6 16 22 19 12 5 5 6 7 8 8 7 6 4 5 6 4 4 4 2 1 3 1 5 3 2 3 3 7 8 10 10 6 9 11 8 11 16 14 12 11 7 4 3 1 3 7 7 6 5 2 1 1 2 4 6 7 8 10 9 7 9 9 7 6 4 1 2 5 3 2 1 1 1 2 3 5 4 2 3 2 2 3 4 4 3
6 4 7 19 25 19 10 6 7 7 7 9 9 8 8 5 4 4 3 4 5 3 2 2 2 3 3 5 2 1 5 7 10 11 7 9 12 9 14 19 15 13 10 7 6 3 2 3 6 6 4 4 4 1 0 1 2 5 7 8 10 12 13 10 3 3 6 6 4 4 7 5 1 1 1 1 1 1 1 1 1 1 1 2 3 3 2 2
6 4 5 14 23 18 9 7 8 8 9 10 10 10 9 7 6 5 5 6 5 3 3 4 4 5 4 5 6 3 5 5 9 11 8 8 7 5 16 23 18 14 10 7 7 5 1 3 6 7 5 4 4 4 3 3 5 9 10 11 13 16 14 6 2 2 5 8 9 8 9 6 2 2 1 1 2 2 2 2 2 2 1 1 2 2 1 1
6 4 3 7 13 11 7 6 8 8 8 10 11 11 10 8 6 8 8 7 6 5 4 4 5 6 4 5 7 6 3 2 5 8 7 6 2 1 12 23 19 14 13 11 8 3 2 5 7 7 8 9 8 7 7 7 6 8 11 14 15 17 14 8 4 5 6 7 8 8 10 7 3 4 3 3 3 3 4 4 4 3 2 0 2 1 1 2
5 3 3 4 4 5 5 6 7 8 8 9 9 9 11 10 6 7 9 8 8 7 6 5 5 6 6 6 6 7 6 4 3 3 5 4 1 2 6 18 19 16 17 18 12 5 1 4 7 7 8 8 5 4 6 6 7 9 13 15 14 15 14 9 6 8 9 7 6 11 16 11 6 7 5 4 4 3 4 4 4 4 3 2 1 1 1 1
4 4 6 5 2 3 6 6 7 8 9 10 8 6 12 13 9 8 10 9 8 7 7 7 6 7 7 6 5 5 7 8 6 4 5 2 0 2 1 11 17 14 15 15 11 7 3 3 8 12 11 4 3 6 11 11 11 13 13 15 15 14 13 10 10 14 11 7 9 17 22 17 10 9 7 4 4 3 3 3 1 2 3 3 2 2 2 2
2 4 8 7 4 5 8 10 10 11 12 12 9 8 13 16 12 9 9 9 9 9 7 6 8 10 9 7 5 3 4 6 7 7 5 2 1 1 3 3 8 11 13 7 3 5 5 6 10 14 14 5 2 8 14 13 12 14 14 14 15 15 15 15 16 17 11 10 15 15 14 17 17 12 10 7 3 2 3 3 3 3 1 2 2 2 3 4
1 2 6 6 5 5 10 14 14 15 16 13 10 10 14 16 15 12 8 7 8 10 10 9 9 11 12 10 7 4 4 5 5 6 6 2 1 3 5 3 2 6 11 6 2 3 4 6 9 12 13 8 1 6 13 12 12 14 16 17 17 17 18 18 20 21 16 18 24 14 8 14 16 12 14 12 3 3 3 2 1 3 3 1 2 4 5 5
3 3 5 6 7 5 8 12 12 12 14 12 11 11 12 14 16 14 10 9 8 9 12 14 13 12 13 13 12 9 8 8 7 6 9 8 3 4 5 5 4 6 9 7 4 4 4 6 9 9 9 6 2 4 8 12 13 14 15 16 17 17 18 19 22 22 18 21 27 20 14 16 11 7 12 10 5 4 3 5 7 6 6 5 5 5 5 5
4 1 2 5 8 7 6 9 10 10 11 11 11 11 11 14 16 14 11 11 12 10 12 17 18 14 12 14 16 15 12 13 11 8 9 11 9 7 5 4 8 10 9 8 7 7 6 5 6 7 7 7 6 5 6 9 10 11 12 16 20 20 20 21 20 17 16 20 24 19 16 15 7 6 8 8 7 8 10 10 9 6 7 9 7 6 6 6
5 1 0 3 7 9 8 8 9 10 9 10 12 12 12 14 16 14 10 10 14 14 12 15 17 12 10 14 18 17 14 14 14 9 7 8 9 8 4 2 9 13 11 10 8 8 9 7 5 7 8 7 6 7 7 8 6 6 12 19 25 25 21 17 16 17 20 21 17 14 15 12 5 7 11 12 13 15 15 13 11 11 10 10 9 9 8 7
Wind_Direction
238 239 239 240 238 236 236 236 237 232 229 233 235 234 235 235 228 222 224 228 224 223 222 218 214 206 202 206 204 200 195 193 193 194 203 199 193 187 184 194 193 183 183 183 182 184 185 198 206 207 215 209 199 194 173 265 268 223 218 225 227 225 220 207 202 192 140 118 121 143 176 194 161 168 172 150 210 200 165 188 164 139 136 88 92 122 130 142
236 239 239 240 237 233 233 234 236 234 228 231 235 235 234 232 226 218 217 224 223 220 220 217 213 206 200 205 204 197 193 194 204 208 208 200 192 185 175 180 181 178 178 184 191 193 195 199 198 203 219 213 182 177 180 184 208 218 225 224 227 231 206 193 192 155 132 138 125 134 178 204 163 161 167 187 199 192 201 198 186 187 167 132 132 141 139 151
234 238 240 240 238 232 232 232 232 233 229 230 236 237 236 234 228 219 213 218 219 215 214 212 209 204 199 205 206 196 190 196 221 218 209 200 191 183 173 172 177 176 177 189 199 199 203 202 195 200 221 225 199 185 194 185 189 221 236 231 230 226 123 107 138 117 101 126 137 138 165 190 164 151 168 205 204 194 213 207 192 200 185 163 151 151 150 161
232 236 239 239 238 232 230 230 229 231 230 229 232 236 239 236 234 231 218 215 216 211 208 205 201 196 194 201 202 191 183 211 229 216 206 198 188 183 176 170 172 178 186 203 206 204 208 204 195 200 221 232 213 200 205 184 184 213 222 237 248 226 176 144 143 128 114 118 147 135 149 183 175 160 177 208 216 206 220 216 201 207 189 166 157 158 161 169
229 231 235 236 236 232 229 228 225 228 229 226 227 231 235 235 237 235 225 219 215 208 205 202 196 191 190 195 195 181 175 217 213 202 206 198 186 183 176 169 167 182 204 227 207 200 208 204 196 204 220 232 216 209 214 195 197 222 220 240 277 279 223 154 129 125 121 123 154 148 158 166 161 184 201 211 221 205 247 231 204 210 186 163 162 162 165 175
228 227 229 232 233 229 226 225 222 224 225 221 222 227 228 233 239 233 228 230 213 207 206 202 193 186 187 188 190 182 184 207 141 196 208 195 182 182 175 172 165 184 224 228 202 193 201 199 195 201 210 227 218 213 220 200 197 226 220 230 250 274 255 139 129 133 133 173 179 166 146 138 170 203 206 214 229 206 43 16 209 218 173 157 161 162 167 179
227 224 223 225 227 226 223 223 221 219 222 221 223 229 230 233 240 230 224 233 214 206 204 199 190 184 180 175 184 197 206 210 83 195 204 192 183 180 176 174 167 192 236 222 196 192 197 194 195 198 204 222 221 218 222 199 191 224 225 215 224 243 258 128 125 143 173 205 173 122 132 180 204 207 192 214 234 231 76 55 33 336 158 155 162 168 174 181
224 223 221 217 219 222 222 222 219 216 219 222 223 226 229 231 238 232 224 231 222 208 203 195 187 184 178 167 174 217 219 205 104 159 196 191 183 173 173 175 180 205 231 221 200 190 192 195 197 196 207 215 220 218 211 194 196 222 229 212 200 187 152 125 126 175 201 215 133 166 213 212 212 187 217 226 238 230 171 120 110 154 163 167 173 175 178 183
219 220 219 215 214 215 217 217 217 217 216 218 217 216 222 226 232 232 222 226 232 212 202 190 183 182 180 170 168 223 216 206 209 82 184 190 180 170 176 183 193 205 218 221 208 195 192 200 200 199 217 214 213 214 196 199 210 216 222 218 194 186 166 152 180 195 201 208 181 204 223 218 176 39 253 238 237 214 181 164 163 171 179 184 185 181 183 186
213 216 216 213 210 210 213 213 216 219 216 216 213 211 215 218 223 223 216 225 242 215 197 186 180 177 175 169 172 221 211 203 214 112 169 186 180 175 185 194 195 196 211 217 209 203 196 204 205 200 239 218 202 207 196 207 252 220 219 217 204 199 177 182 205 191 194 214 201 215 228 201 152 198 239 224 210 185 177 186 183 183 195 198 194 189 189 191
210 212 212 211 207 207 208 208 213 218 217 214 212 211 210 208 210 211 211 222 241 216 194 184 179 176 174 171 185 207 194 198 204 159 162 183 185 187 192 196 192 190 200 206 210 215 170 40 211 164 258 221 189 199 206 201 358 253 210 207 210 210 193 202 215 196 200 210 198 222 243 198 158 214 231 173 139 179 185 186 183 190 202 203 200 194 193 197
208 208 208 208 205 202 203 205 209 214 213 212 211 206 203 202 197 197 203 215 237 213 189 181 179 177 173 181 201 190 178 201 203 186 177 178 188 197 195 193 190 191 188 174 230 270 73 33 33 159 191 228 181 181 200 175 196 214 192 210 210 215 220 214 216 206 209 206 176 201 253 226 202 216 226 182 153 188 193 189 186 191 200 202 202 195 197 201
205 207 205 203 202 199 201 203 207 214 211 208 210 200 197 198 189 187 196 212 237 207 188 181 179 175 171 197 208 189 174 195 204 200 189 174 183 199 200 196 193 196 189 178 211 243 210 50 36 209 245 250 191 132 136 160 188 199 197 229 209 209 230 216 213 203 202 196 161 182 249 234 218 216 211 179 167 188 198 199 194 192 194 197 198 195 200 201
202 204 202 199 198 197 199 201 203 212 212 209 208 197 193 190 180 175 182 204 221 202 192 183 178 175 177 199 191 191 185 173 195 200 187 167 161 180 190 190 191 198 193 188 206 222 232 21 360 272 271 270 187 122 141 158 185 197 196 229 214 215 230 206 201 189 189 181 157 192 247 247 237 215 193 170 169 184 200 206 199 196 192 191 193 193 200 200
198 198 197 194 193 192 195 196 195 203 211 210 201 190 187 184 179 173 173 194 203 205 199 184 178 174 182 203 171 188 187 167 187 194 178 158 152 169 174 173 180 190 194 201 211 211 214 318 330 252 226 247 167 159 174 168 191 199 190 210 213 221 217 186 188 188 194 179 166 194 234 247 253 216 166 157 174 186 205 212 204 202 194 190 191 194 200 200
196 194 193 190 189 189 189 190 190 195 202 205 195 183 180 175 171 177 186 196 202 217 217 186 177 171 181 197 162 179 180 166 187 187 174 160 156 165 159 157 165 174 188 201 203 193 191 233 310 253 210 195 183 179 178 179 196 202 207 212 197 203 199 166 180 197 199 174 176 202 231 245 243 184 146 161 185 192 211 217 212 209 201 195 192 195 200 200
196 192 190 187 186 185 185 186 185 185 192 199 191 179 178 177 166 170 186 200 224 211 235 253 186 176 193 157 148 172 173 164 181 181 176 168 157 150 143 141 147 147 154 160 170 171 174 208 244 236 214 197 193 190 185 193 195 191 212 223 195 202 211 177 169 194 196 185 189 206 233 253 243 155 147 175 197 203 212 219 220 212 205 202 197 198 200 201
192 188 185 183 182 181 182 182 179 178 185 193 189 179 173 177 179 172 168 176 60 111 236 291 221 182 191 166 157 170 170 165 171 176 179 171 157 148 139 128 132 132 128 129 162 166 171 202 204 198 203 198 198 196 193 194 192 187 196 209 202 206 218 207 157 171 186 198 212 208 223 243 248 231 199 182 189 211 217 218 225 217 208 206 204 208 204 205
187 184 181 179 176 176 177 176 175 174 174 177 180 173 157 160 178 183 143 139 143 40 218 266 239 239 213 171 169 159 165 163 159 168 176 166 152 144 129 121 133 135 142 157 170 176 176 175 192 202 199 198 198 198 199 191 184 189 190 204 214 209 218 214 126 142 182 196 217 220 227 237 241 243 238 205 181 204 224 221 221 216 213 213 210 214 211 214
185 182 179 176 170 169 169 169 173 172 169 164 158 154 147 145 160 190 151 148 206 245 338 348 307 319 350 152 148 140 153 161 156 162 169 160 144 135 121 124 140 148 164 164 156 175 187 178 199 206 194 194 198 198 203 203 188 191 200 213 224 222 218 206 139 130 183 208 217 221 235 241 242 243 244 229 197 202 220 222 219 214 213 216 215 216 215 220
182 180 176 173 166 164 165 168 172 174 172 160 152 153 164 157 151 172 165 199 222 237 292 357 352 318 323 52 135 133 140 156 163 166 167 161 147 140 141 145 151 170 177 161 134 148 191 201 207 204 193 191 196 198 204 212 202 199 213 217 223 229 219 186 151 140 169 223 232 229 239 245 246 246 244 239 224 217 222 224 223 219 218 216 216 220 220 223
178 177 173 169 165 163 165 168 171 172 170 163 167 186 182 168 166 157 156 184 219 225 247 284 313 289 292 331 86 128 138 154 169 176 173 169 161 156 163 161 164 175 171 156 125 140 199 222 209 197 191 188 193 199 206 213 208 208 218 214 220 224 203 152 151 156 169 218 245 247 253 256 254 252 247 241 237 232 229 230 230 225 223 221 216 217 219 220
174 173 170 166 163 163 165 166 167 168 169 171 182 194 176 172 156 150 155 116 192 210 226 220 248 270 268 300 333 107 158 166 168 178 178 178 176 168 167 169 175 177 168 164 160 166 193 216 203 193 192 191 192 198 204 207 208 213 211 210 222 215 215 214 166 162 179 223 271 282 275 271 267 263 253 243 241 241 236 232 233 228 226 226 220 216 215 217
173 169 168 165 161 163 163 162 165 169 174 178 185 181 156 153 147 150 154 71 154 183 199 202 214 255 263 263 330 201 167 173 172 174 175 179 179 168 172 174 175 176 173 176 178 183 191 183 188 191 191 193 193 195 201 201 206 215 212 212 217 210 222 233 132 154 192 221 247 279 280 269 259 256 251 241 234 234 233 229 228 225 224 226 224 223 221 221
172 168 165 161 161 163 159 159 167 173 177 181 178 162 148 145 151 159 144 51 236 163 173 187 185 231 239 175 120 102 35 198 185 165 168 185 189 172 178 180 175 175 173 178 183 193 197 166 175 187 188 192 194 195 200 201 204 212 212 215 216 215 220 192 130 159 246 232 193 222 267 264 243 244 243 239 232 228 224 221 223 223 221 219 220 222 220 223
173 170 163 161 162 160 156 162 175 173 175 181 167 154 151 148 157 171 154 30 254 176 156 167 148 203 214 184 129 120 2 297 151 146 164 189 208 200 187 181 174 178 171 175 189 196 188 170 175 186 187 190 195 196 197 197 208 217 199 201 213 225 224 206 179 202 260 264 142 192 258 272 258 251 246 239 237 233 224 221 224 226 223 216 214 217 214 218
177 172 165 164 160 157 157 163 168 170 178 176 161 155 156 157 167 189 176 315 253 159 143 162 150 176 186 160 137 148 215 172 108 148 168 190 208 329 210 179 162 178 167 169 194 179 171 176 179 184 184 188 196 199 196 196 210 212 152 171 197 216 220 213 211 238 265 306 271 204 242 277 270 258 254 252 250 245 234 227 228 229 229 223 216 214 210 213
177 172 167 165 161 162 162 149 160 174 181 164 155 154 156 155 164 212 187 197 216 125 133 153 152 157 161 144 144 171 229 136 137 166 156 182 200 352 223 191 183 177 169 179 189 154 170 180 181 184 186 193 201 200 192 192 204 190 132 164 188 204 216 215 221 243 277 327 266 220 199 262 266 247 240 242 242 245 238 233 234 230 229 227 223 218 209 210
173 172 170 165 165 171 166 154 165 174 162 152 149 153 147 129 106 51 202 202 164 107 140 145 141 146 141 137 154 194 244 87 105 154 125 158 207 325 214 219 207 178 172 185 184 140 168 183 182 186 192 198 199 198 188 187 196 146 122 126 130 154 166 168 220 244 277 272 259 235 197 242 274 252 222 224 229 237 238 238 238 231 223 222 224 222 213 207
170 172 169 166 168 170 158 157 164 158 149 149 147 144 136 119 96 184 198 206 113 112 137 150 159 151 146 154 166 193 212 149 81 129 136 158 200 327 315 326 243 174 158 107 111 120 118 144 187 189 203 194 177 169 175 175 162 134 120 104 104 117 117 128 194 70 273 259 255 235 217 230 278 257 204 219 225 226 239 244 240 231 223 219 220 221 216 208
167 167 164 166 167 157 149 149 149 147 146 147 147 142 133 129 186 197 190 234 67 143 155 153 157 149 151 167 173 181 200 186 131 158 162 151 160 162 165 177 45 107 126 95 70 102 127 143 181 165 251 172 136 91 47 122 141 144 142 134 134 132 119 150 171 139 237 252 263 238 218 213 242 245 181 231 234 214 237 250 244 234 225 219 218 219 218 214
159 163 162 166 164 154 154 148 143 146 146 146 148 150 149 159 208 214 183 48 76 175 172 154 155 155 155 168 184 184 188 182 165 180 177 162 173 179 183 191 159 125 168 159 135 136 150 167 143 74 297 177 141 132 96 122 161 172 168 166 174 176 159 192 192 179 234 238 90 64 206 215 242 256 248 248 246 231 235 247 251 246 238 230 219 217 218 216
155 163 162 163 162 148 142 139 139 147 149 148 145 153 180 185 202 211 178 124 324 200 165 157 159 158 154 165 191 188 186 185 175 188 185 169 179 191 191 191 183 180 179 159 149 150 152 294 138 141 207 200 171 167 162 167 185 188 185 184 187 177 169 198 196 206 241 226 130 119 151 253 262 267 252 244 246 246 239 239 245 247 249 251 231 206 233 17
153 160 155 155 157 148 142 136 133 139 144 146 137 157 187 205 197 195 195 205 352 20 170 168 164 159 159 171 180 175 185 200 182 189 188 171 182 195 188 187 199 234 95 145 158 159 157 181 196 173 177 196 191 191 172 149 174 190 193 194 194 183 187 200 196 210 227 191 140 157 169 237 241 329 297 254 256 259 254 252 254 254 253 250 12 12 337 348
144 149 145 139 134 143 152 146 139 144 145 150 160 166 186 202 189 192 200 198 112 112 211 184 167 162 169 176 172 169 177 193 181 186 183 176 183 186 177 181 196 205 144 157 175 169 165 176 190 172 201 188 185 188 151 129 146 190 177 187 201 211 206 201 201 209 210 359 191 192 225 248 253 310 302 274 268 259 248 249 247 250 246 219 207 226 221 233
141 141 139 128 114 126 150 153 153 160 159 160 176 179 188 198 191 184 175 187 201 162 176 199 176 166 172 175 171 173 167 131 172 177 185 185 189 183 178 179 188 198 189 164 147 175 177 167 134 133 19 182 174 171 161 154 161 170 172 191 193 329 222 205 206 111 94 275 234 194 239 263 274 284 266 242 245 244 233 235 236 243 241 221 213 200 185 206
140 139 139 134 126 125 140 147 155 170 176 177 191 191 192 204 212 179 157 182 198 160 142 201 184 171 170 167 173 172 161 141 171 172 176 186 197 186 181 185 188 199 218 199 199 205 170 117 103 153 139 179 312 124 162 164 152 161 180 178 128 28 322 224 219 184 196 252 243 206 232 250 252 268 249 217 232 234 223 227 233 239 236 226 215 179 179 198
135 135 131 144 146 140 138 143 155 171 183 195 207 206 203 208 212 180 153 186 199 183 186 213 191 189 177 168 170 168 164 169 175 171 168 181 216 184 177 188 195 204 235 242 252 206 152 111 71 188 154 156 327 136 146 11 342 173 165 153 148 199 202 183 210 212 210 231 250 232 233 242 233 239 254 204 222 230 230 231 229 229 232 228 219 199 192 188
135 134 121 151 156 151 148 153 162 175 188 198 207 207 204 208 207 207 223 245 235 205 204 194 154 224 214 176 161 161 171 174 165 169 184 186 206 182 179 183 186 204 227 242 245 201 167 133 134 204 128 133 183 175 166 171 332 347 161 171 194 231 204 194 205 222 227 228 249 244 226 235 235 234 239 232 224 220 224 227 223 220 226 229 227 211 185 163
139 144 132 154 157 154 153 161 173 179 192 204 212 205 198 210 216 219 227 77 24 247 221 210 130 140 298 199 166 162 174 172 162 175 197 181 169 176 188 186 176 198 212 220 289 238 207 152 140 134 106 160 186 197 185 181 173 176 186 183 190 198 190 218 214 219 237 237 246 250 243 242 235 234 236 237 239 228 222 230 218 197 200 214 229 184 134 127
148 145 143 160 160 155 152 161 185 184 199 211 220 220 210 221 235 237 231 192 147 6 360 358 164 167 107 228 185 167 168 168 167 178 184 179 185 190 193 190 178 186 195 192 260 255 230 145 136 140 170 186 194 203 186 192 184 182 189 184 185 186 171 195 209 206 211 236 249 258 265 251 146 129 230 229 263 295 1 323 184 125 129 152 58 61 90 110
156 145 153 167 166 160 157 173 192 193 211 212 215 221 215 232 252 254 249 205 211 243 3 351 223 164 144 212 241 184 178 175 172 184 185 186 208 215 185 185 180 174 179 179 202 254 330 110 128 139 165 166 116 39 167 237 224 202 204 196 187 188 190 201 210 195 182 203 270 297 278 270 104 73 258 114 29 26 33 19 43 71 69 60 51 61 81 108
162 132 138 165 170 169 170 190 195 205 221 218 224 224 214 225 244 260 267 216 211 200 196 275 246 194 192 192 190 274 221 196 178 191 192 186 212 209 169 174 174 169 177 174 181 240 336 110 123 115 117 98 81 107 159 329 246 210 217 210 196 196 201 207 208 160 182 198 200 226 250 244 138 69 313 4 42 32 20 17 35 15 25 46 51 66 72 83
155 119 115 169 179 182 187 194 192 204 216 216 226 225 217 228 233 227 225 216 214 188 186 233 236 237 230 177 167 203 236 217 191 197 198 194 213 179 162 174 173 168 180 174 173 199 207 150 137 125 134 136 131 164 192 218 215 209 208 203 202 201 193 179 119 161 207 208 196 213 242 244 162 117 197 202 169 197 219 203 200 228 236 118 105 105 95 71
138 113 94 175 190 197 211 212 201 204 204 208 222 223 217 225 227 226 230 227 225 217 214 225 220 230 226 169 181 205 217 232 201 201 210 205 216 90 171 178 174 175 182 169 156 161 168 182 168 148 160 173 177 185 189 193 201 207 202 196 201 199 181 163 178 199 216 211 189 208 241 242 168 152 174 156 157 187 185 189 210 228 241 245 102 105 85 70
146 139 140 161 196 217 237 248 232 219 202 199 215 223 222 229 225 215 224 235 236 232 243 247 224 228 222 184 195 216 206 196 185 216 238 205 137 351 189 182 183 186 177 162 149 120 82 211 208 199 189 177 172 162 139 145 167 186 196 191 190 195 187 175 193 212 219 213 201 222 234 233 195 184 184 147 155 169 148 169 201 204 209 216 158 137 93 68
166 169 165 161 165 202 224 239 234 225 208 199 202 201 212 226 229 205 202 217 230 230 244 252 231 226 221 187 192 227 211 190 177 215 261 264 193 354 171 193 196 181 159 157 158 143 125 212 223 225 217 181 97 127 133 142 169 178 185 184 178 183 189 188 207 219 212 204 230 231 227 229 220 194 187 176 170 158 120 127 139 119 142 159 161 155 150 192
180 177 171 168 168 186 203 209 213 216 211 206 204 200 209 218 222 209 193 201 217 216 222 238 226 224 225 201 183 214 215 194 184 200 226 282 242 143 89 206 206 162 143 146 157 145 158 199 210 220 225 225 90 150 151 151 169 170 170 179 177 180 192 202 219 224 202 202 235 232 208 220 228 211 208 220 199 124 107 82 27 10 55 134 155 176 175 186
162 172 165 172 186 192 199 202 203 209 211 208 206 208 213 216 216 214 200 194 209 209 210 225 224 218 222 218 207 208 208 200 200 199 185 157 234 198 143 144 223 165 152 148 140 157 179 200 196 209 226 233 187 169 164 152 163 173 176 180 178 183 197 207 221 224 211 219 238 237 204 225 231 218 221 226 191 93 104 93 297 263 251 216 192 200 195 189
184 176 163 187 206 203 205 204 201 208 213 212 212 214 218 218 216 215 208 197 199 198 204 221 229 221 216 217 217 217 208 207 222 210 173 161 193 221 184 168 174 175 169 162 162 180 192 189 180 192 221 227 224 211 179 159 165 177 180 180 177 183 199 211 222 222 212 226 240 242 245 251 243 213 223 216 152 126 192 226 234 220 200 201 209 209 201 193
197 183 146 199 205 196 197 199 200 210 212 206 211 214 216 221 218 215 211 208 210 205 198 212 225 226 218 217 218 219 213 212 229 225 179 176 189 198 211 192 163 164 176 176 168 172 181 179 161 170 214 220 197 189 172 154 160 173 178 181 182 188 199 210 218 216 205 221 235 237 244 253 235 183 213 205 176 203 228 236 245 232 190 183 195 213 214 203
188 185 25 220 211 199 194 195 201 212 213 208 211 210 213 221 219 214 214 210 215 220 215 215 223 226 226 224 221 220 217 214 224 228 195 198 210 196 188 182 172 173 176 178 178 177 180 181 160 168 203 214 178 160 148 129 135 190 197 192 192 197 202 211 220 217 212 218 227 227 233 241 214 180 204 203 195 209 223 228 239 244 221 193 187 198 207 209